Location: Asheville, NC
(35.6000°N, 82.5500°W)
Time: 13:46:28
(UTC-04:00)

ITAMSAT 1 - Pass Details

Date: 09 March 2018
Orbit: 784 x 796 km, 98.9° (Epoch: 18 June)

Event Time Altitude Azimuth Distance (km) Brightness Sun altitude
Rises 05:31:12 0° 358° (N) 3,303 11.0 -16.7°
Reaches altitude 10° 05:33:55 10° 345° (NNW) 2,368 10.0 -16.1°
Maximum altitude 05:38:01 24° 293° (WNW) 1,588 8.7 -15.3°
Enters shadow 05:39:06 23° 275° (W) 1,651 8.7 -15.1°
